Tracking 30703 objects as of 13-Jun-2025
HD Live streaming from Space Station
objects crossing your sky now

SES 22

Track SES 22 now!


NORAD ID: 52933
Int'l Code: 2022-071A
Perigee: 35,789.5 km
Apogee: 35,798.9 km
Inclination: 0.0 °
Period: 1,436.1 minutes
Semi major axis: 42165 km
RCS: Unknown
Launch date: June 29, 2022
Source: SOCIETE EUROPEENNE DES SATELLITES (SES)
Launch site: AIR FORCE EASTERN TEST RANGE (AFETR)
Your satellite tracking list
Your tracking list is empty




NASA's NSSDC Master Catalog

Two Line Element Set (TLE):
1 52933U 22071A   25163.80794598  .00000121  00000-0  00000-0 0  9995
2 52933   0.0163 343.8908 0001112  84.6760 344.6728  1.00270118  3811
Source of the keplerian elements: AFSPC